www.pogodaiklimat.ru

Погода и климат >> Архив погоды >> Индия >> Раджастхан >> Джайпур


ПОГОДА в Джайпуре

  • Прогноз погоды в Джайпуре
  • Монитор погоды в Джайпуре

АРХИВ ПОГОДЫ в Джайпуре

Время (UTC), дата Ветер
(напр.,м/с)
 
Видим.   Явления Облачность Т
(С)
Тd
(С)
f
(%)
Тe
(С)
Тes
(С)
Комфортность P
(гПа)
Po
(гПа)
Тmin
(С)
Tmax
(С)
R
(мм)
R24
(мм)
S
(см)
15 18.08 штиль 0 2000 м мгла 6/4 900 м
[Cb calv Ac trans]
+29.0 +25.6 82 +43 +43 опасность
перегрева
1003.4 960.1
18 18.08 СЗ 2 2000 м дымка 5/1 900 м
[Sc Ac trans]
+27.2 +25.8 92 +40 +40 очень
душно
1004.3 960.7
21 18.08 СЗ 2 2000 м мгла 6/3 900 м
[Sc Ac trans]
+25.8 +24.4 92 +36 +36 очень
душно
1004.2 960.4
00 19.08 СЗ 2 2000 м дымка 4/3 900 м
[Sc Ac trans]
+25.6 +24.4 93 +36 +36 очень
душно
1003.7 959.9
03 19.08 З 3 2000 м дымка 8/6 900 м
[Cu Sc Ac trans]
+27.0 +24.7 87 +38 +40 очень
душно
1006.1 962.4 +25.0 +32.6
06 19.08 З 3 2000 м мгла 9/5 900 м
[Sc diur, vesp Ac trans]
+30.6 +24.6 70 +43 +47 опасность
перегрева
1005.6 962.4
09 19.08 СЗ 5 4000 м мгла 9/5 900 м
[Sc diur, vesp Ac trans]
+32.8 +25.2 64 +47 +49 опасность
перегрева
1004.1 961.3
12 19.08 З 4 4000 м мгла 8/5 900 м
[Cb calv Ac trans]
+33.0 +25.4 64 +47 +48 опасность
перегрева
1002.3 959.6 +34.0
15 19.08 З 3 2000 м мгла 9/6 750 м
[Cb calv Ac trans]
+30.0 +23.3 67 +40 +40 очень
душно
1004.4 961.2
18 19.08 З 3 2000 м мгла 9/5 750 м
[Sc Ac trans]
+27.0 +23.8 83 +37 +37 очень
душно
1005.7 962.0
21 19.08 СЗ 2 2000 м мгла 8/4 900 м
[Sc Ac trans]
+26.0 +22.4 81 +34 +34 очень
душно
1005.1 961.3
00 20.08 СЗ 2 2000 м мгла 4/3 1050 м
[Sc Ac trans]
+25.6 +22.3 82 +33 +33 очень
душно
1005.2 961.3
03 20.08 СЗ 4 2000 м мгла 3/0
[Ac trans]
+28.0 +24.3 80 +39 +43 очень
душно
1006.3 962.7 +25.1 +34.0
06 20.08 СЗ 5 4000 м мгла 3/3 900 м
[Sc]
+31.6 +24.4 66 +44 +51 опасность
перегрева
1005.5 962.5
09 20.08 СЗ 3 4000 м мгла 6/5 900 м
[Sc diur, vesp Ac trans]
+33.6 +24.2 58 +46 +51 опасность
перегрева
1003.4 960.7
12 20.08 СЗ 5 4000 м мгла 8/4 900 м
[Cb calv Ac trans]
+33.2 +23.8 58 +45 +45 опасность
перегрева
1001.4 958.8 +34.6
18 20.08 штиль 0 50 км мгла ?/? +29.2 +23.7 72 +40 +40 очень
душно
1003.3 960.0
21 20.08 штиль 0 2000 м мгла 4/3 900 м
[Sc Ac trans]
+27.8 +24.6 83 +39 +39 очень
душно
1002.9 959.5
00 21.08 З 3 2000 м дымка 4/3 900 м
[Sc Ac trans]
+26.8 +24.5 87 +38 +38 очень
душно
1003.0 959.4
03 21.08 З 5 2000 м мгла 1/1 1050 м
[Sc]
+28.6 +23.7 75 +39 +42 очень
душно
1004.1 960.7 +26.2 +34.6
06 21.08 СЗ 5 4000 м мгла 5/5 900 м
[Sc]
+32.0 +24.0 63 +44 +49 опасность
перегрева
1003.9 961.0
09 21.08 З 4 2000 м мгла 5/5 900 м
[Sc]
+33.8 +24.1 57 +46 +51 опасность
перегрева
1002.4 959.8
12 21.08 З 5 4000 м мгла 5/5 900 м
[Sc]
+34.0 +24.0 56 +46 +46 опасность
перегрева
1000.3 957.8 +35.0
15 21.08 З 3 2000 м мгла 3/3 900 м
[Sc]
+31.0 +24.4 68 +43 +43 опасность
перегрева
991.9 949.4
18 21.08 СЗ 2 2000 м мгла 6/4 900 м
[Sc Ac trans]
+28.2 +20.3 62 +35 +35 очень
душно
1002.9 959.5
21 21.08 СЗ 3 2000 м мгла 9/6 900 м
[Cb calv Ac trans]
+28.8 +21.7 66 +37 +37 очень
душно
1003.0 959.7
00 22.08 З 3 2000 м мгла 8/5 900 м
[Sc Ac trans]
+27.0 +22.9 78 +36 +36 очень
душно
1003.1 959.5
03 22.08 З 4 2000 м мгла 4/4 900 м
[Sc]
+28.4 +22.8 72 +38 +40 очень
душно
1004.5 961.1 +26.0 +35.0
06 22.08 СЗ 4 2000 м мгла 4/4 900 м
[Sc]
+31.6 +23.2 61 +42 +51 опасность
перегрева
1004.4 961.4
09 22.08 З 3 4000 м мгла 8/8 900 м
[Cb calv]
+33.4 +23.7 57 +45 +47 опасность
перегрева
1001.8 959.2
12 22.08 нст 2 2000 м мгла {дождь} 9/6 900 м
[Cb calv As op]
+28.4 +23.8 76 +39 +39 очень
душно
1001.6 958.3 +34.2 0.5
15 22.08 штиль 0 2000 м дымка 8/4 900 м
[Sc Ac trans]
+27.4 +23.9 81 +38 +38 очень
душно
1002.1 958.6 0.5
18 22.08 штиль 0 2000 м дымка 5/3 900 м
[Sc Ac trans]
+28.4 +25.3 83 +41 +41 опасность
перегрева
1002.8 959.4 0.5
21 22.08 З 2 2000 м дымка 6/4 900 м
[Sc Ac trans]
+27.6 +23.8 80 +38 +38 очень
душно
1003.1 959.6 0.5
00 23.08 З 2 2000 м дымка 6/4 900 м
[Sc Ac trans]
+27.2 +23.7 81 +37 +37 очень
душно
1003.1 959.6 0.5
03 23.08 З 4 2000 м мгла 6/3 900 м
[Sc Ac trans Ci fib]
+28.2 +22.9 73 +38 +40 очень
душно
1003.7 960.3 +26.6 +34.2 0.5
06 23.08 З 5 2000 м мгла 5/3 900 м
[Sc Ac trans]
+31.2 +22.8 61 +41 +47 опасность
перегрева
1003.6 960.6
09 23.08 СЗ 4 2000 м мгла 8/5 900 м
[Sc diur, vesp Ac trans]
+33.8 +23.8 56 +45 +49 опасность
перегрева
1001.3 958.8
12 23.08 СЗ 4 4000 м мгла 8/4 900 м
[Sc diur, vesp Ac trans]
+33.4 +23.0 55 +44 +44 опасность
перегрева
1000.4 957.8 +34.8
15 23.08 Ю 2 2000 м мгла 5/5 900 м
[Sc]
+30.0 +24.3 72 +42 +42 опасность
перегрева
1002.6 959.5
18 23.08 З 2 2000 м мгла 5/5 900 м
[Sc]
+29.0 +24.7 78 +41 +41 опасность
перегрева
1003.1 959.8
21 23.08 З 2 2000 м мгла 4/4 1050 м
[Sc]
+28.6 +23.4 73 +39 +39 очень
душно
1002.3 959.0
00 24.08 СЗ 3 2000 м мгла 4/4 1050 м
[Sc]
+27.8 +23.1 76 +37 +37 очень
душно
1002.7 959.3
03 24.08 СЗ 5 4000 м мгла 8/4 900 м
[Sc Ac trans]
+29.0 +21.9 66 +37 +39 очень
душно
1003.8 960.5 +27.2 +34.8
06 24.08 СЗ 5 4000 м мгла 6/4 900 м
[Sc Ac trans]
+32.2 +21.2 52 +40 +44 очень
душно
1003.2 960.4
09 24.08 З 3 4000 м мгла 8/5 900 м
[Sc diur, vesp Ac trans]
+34.0 +23.0 53 +44 +48 опасность
перегрева
1001.5 959.0
12 24.08 З 2 2000 м мгла {гроза, дождь} 9/6 900 м
[Cb calv As op]
+31.2 +24.7 68 +44 +44 опасность
перегрева
1000.8 957.9 +34.9 0.0
15 24.08 штиль 0 2000 м мгла 5/3 900 м
[Sc Ac trans]
+31.2 +26.8 78 +49 +49 опасность
перегрева
1001.1 958.2 0.0
18 24.08 штиль 0 2000 м мгла 5/3 900 м
[Sc Ac trans]
+29.8 +24.7 74 +42 +42 опасность
перегрева
1002.1 959.0 0.0
21 24.08 штиль 0 2000 м дымка {гроза, дождь} 8/4 900 м
[Sc Ac trans]
+28.4 +24.4 79 +40 +40 очень
душно
1002.0 958.7 0.0
00 25.08 В 1 2000 м дымка {дождь} 8/3 900 м
[Sc Ac trans]
+25.6 +23.9 90 +35 +35 очень
душно
1002.3 958.6 0.2
03 25.08 СЗ 3 2000 м мгла 9/5 900 м
[Sc Ac trans]
+28.6 +23.1 72 +38 +40 очень
душно
1003.2 959.9 +25.3 +34.9 0.2
06 25.08 ЮВ 3 4000 м мгла 10/5 900 м
[Sc As op]
+29.4 +25.1 78 +43 +44 опасность
перегрева
1003.7 960.4
09 25.08 В 2 4000 м мгла 10/5 900 м
[Sc As op]
+29.2 +26.1 83 +44 +45 опасность
перегрева
1001.8 958.6
12 25.08 СЗ 2 2000 м слаб. дождь 10/6 750 м
[Cb calv As op]
+27.4 +24.5 84 +39 +39 очень
душно
1000.7 957.3 +31.0 0.8

 

Местоположение метеостанции Джайпур (Раджастхан, Индия): широта 26.82 долгота 75.80 высота над уровнем моря 390 м.

В архиве по умолчанию представлена погода в Джайпуре за последнюю неделю. Архивные данные за месяц целиком и за предыдущие месяцы, начиная с января 2011 года, Вы можете получить, выбрав интересующий диапазон дат из раскрывающегося списка и нажав кнопку "Ввод!".


*Определитесь, кто Вы:
робот инопланетянин человек

Внимание! Время в таблицах - всемирное. Для получения местного времени необходимо прибавить поправку, которая равна 5.5 ч.

Смотрите также архив погоды в соседних городах и на ближайших метеорологических станциях:

Погода в Аджмере (Раджастхан, Индия) (124 км)
Погода в Шеопуре (Мадхья-Прадеш, Индия) (155 км)
Погода в Пилани (Раджастхан, Индия) (169 км)
Погода в Чуру (Раджастхан, Индия) (181 км)
Погода в Коте (Раджастхан, Индия) (186 км)
Погода в Бхилваре (Раджастхан, Индия) (201 км)
Погода в Агре (Уттар-Прадеш, Индия) (218 км)
Погода в Нью-Дели Айя Нагар (округ Дели, Индия) (226 км)
Погода в Нью-Дели аэропорт (округ Дели, Индия) (234 км)
Погода в Рохтаке (Харьяна, Индия) (236 км)

Пояснения к столбцам:

Ветер - указаны скорость ветра в м/с - средняя за 10 мин, порывы в срок и между сроками (в фигурных скобках) и направление, откуда дует ветер: С - северный, СВ - северо-восточный, В - восточный, ЮВ - юго-восточный, Ю - южный, ЮЗ - юго-западный, З - западный, СЗ - северо-западный.
Видимость - горизонтальная дальность видимости в метрах или километрах. При видимости от 1 до 10 км при отсутствии осадков обычно наблюдается дымка, при ухудшении видимости до 1 км и менее - туман. В сухую погоду видимость может ухудшаться дымом, пылью или мглою.
Явления - указаны атмосферные явления, наблюдавшиеся в срок или в последний час перед сроком; фигурными скобками обозначены явления, наблюдавшиеся между сроками (за 1-3 часа до срока); квадратными скобками обозначены град или гололедные отложения с указанием их диаметра в мм.
Облачность - указаны через наклонную черту общая и нижняя облачность в баллах и высота нижней границы облаков в метрах; квадратными скобками обозначены формы облаков: Ci - перистые, Cs - перисто-слоистые, Cc - перисто-кучевые, Ac - высококучевые, As - высокослоистые, Sc - слоисто-кучевые, Ns - слоисто-дождевые, Cu - кучевые, Cb - кучево-дождевые. Подробнее классификацию облаков см. в Атласе облаков (PDF).
T - Температура воздуха - температура, измеренная на высоте 2 м над землей.
Td - Температура точки росы - температура, при понижении до которой содержащийся в воздухе водяной пар достигнет насыщения.
f - Относительная влажность воздуха - влажноcть воздуха, измеренная на высоте 2 м над землей.
Te - Эффективная температура - температура, которую ощущает одетый по сезону человек в тени. Характеристика душности погоды. При расчете учитывается влияние влажности воздуха и скорости ветра на теплоощущения человека.
Tes - Эффективная температура на солнце - температура, которую ощущает человек, с поправкой на солнечный нагрев. Характеристика знойности погоды. Зависит от высоты солнца над горизонтом, облачности и скорости ветра. Ночью, в пасмурную погоду, а также при ветре 12 м/с и более поправка равна нулю.
P - Атмосферное давление - приведенное к уровню моря атмосферное давление.
Po - Атмосферное давление - измеренное на уровне метеостанции атмосферное давление.
Tmin - Минимальная температура - минимум температуры воздуха на высоте 2 м над землей.
Tmax - Максимальная температура - максимум температуры воздуха на высоте 2 м над землей.
R - Количество осадков - Количество выпавших осадков за период времени, мм. При наведении курсора мыши на число - период времени, за который выпало указанное количество осадков.
R24 - Количество осадков - Количество выпавших осадков за 24 часа, мм.
S - Снежный покров - Высота снежного покрова, см. При наведении курсора мыши на число - состояние снежного покрова и степень покрытия местности в баллах.